GW0032 Weather Reports


Display with metric or nautical units.
time (UTC)temp
F
wind
direction
speed
MPH
gust
MPH
rain 1hr
in
rain 24hr
in
rain mn
in
humidity
%
barometer
mb
20260504182046 64 140 7.0 13.0 0.00 0.00 0.00 37 1012.2
20260504181559 64 181 8.0 13.0 0.00 0.00 0.00 38 1012.2
20260504181552 56 219 5.0 12.0 0.00 0.00 0.00 70 1016.5
20260504181049 63 148 8.0 12.0 0.00 0.00 0.00 40 1012.0
20260504180547 63 179 8.0 12.0 0.00 0.00 0.00 40 1012.0
20260504180059 63 178 6.0 10.0 0.00 0.00 0.00 41 1011.9
20260504180047 56 267 5.0 11.0 0.00 0.00 0.00 70 1016.4
20260504175544 63 161 7.0 11.0 0.00 0.00 0.00 41 1012.1
20260504175046 62 146 7.0 14.0 0.00 0.00 0.00 41 1012.0
20260504174551 63 120 6.0 14.0 0.00 0.00 0.00 42 1012.0
20260504174050 62 191 6.0 12.0 0.00 0.00 0.00 42 1011.9
20260504173542 62 176 6.0 12.0 0.00 0.00 0.00 42 1011.8
20260504173056 62 171 7.0 11.0 0.00 0.00 0.00 43 1011.9
20260504173049 57 225 6.0 14.0 0.00 0.00 0.00 68 1016.1
20260504172542 62 178 4.0 13.0 0.00 0.00 0.00 44 1011.7
20260504172042 60 192 6.0 13.0 0.00 0.00 0.00 44 1011.6
20260504171608 60 159 6.0 12.0 0.00 0.00 0.00 45 1011.7
20260504171548 57 262 5.0 13.0 0.00 0.00 0.00 68 1015.9
20260504171042 60 152 7.0 11.0 0.00 0.00 0.00 44 1011.7
20260504170547 60 194 7.0 12.0 0.00 0.00 0.00 45 1011.7
20260504151043 57 217 8.0 12.0 0.00 0.00 0.00 47 1010.8
20260504150548 57 191 8.0 11.0 0.00 0.00 0.00 46 1010.8
20260504141042 54 101 1.0 2.0 0.00 0.00 0.00 48 1010.4
20260504140619 54 0 1.0 2.0 0.00 0.00 0.00 50 1010.4
20260504140106 53 0 0.0 1.0 0.00 0.00 0.00 51 1010.4
20260504130546 53 328 1.0 3.0 0.00 0.00 0.00 53 1009.7
20260504120110 53 326 1.0 4.0 0.00 0.00 0.00 51 1009.5
20260504110547 55 319 5.0 8.0 0.00 0.00 0.00 50 1009.4
20260504110107 55 328 4.0 7.0 0.00 0.00 0.00 50 1009.4
20260504100549 56 300 3.0 5.0 0.00 0.00 0.00 48 1009.1
20260504081553 61 49 2.0 5.0 0.00 0.00 0.00 40 1009.4
20260504081550 53 0 0.0 2.0 0.00 0.01 0.00 87 1015.8
20260504081042 62 54 2.0 4.0 0.00 0.00 0.00 38 1009.4
20260504080542 64 65 0.0 6.0 0.00 0.00 0.00 36 1009.6
20260504060218 66 193 3.0 8.0 0.00 0.00 0.00 32 1008.7
20260504050637 68 215 4.0 7.0 0.00 0.00 0.00 31 1008.9
20260504045548 69 208 5.0 8.0 0.00 0.00 0.00 30 1008.9
20260504045047 70 211 5.0 8.0 0.00 0.00 0.00 30 1008.8
20260504044552 70 199 5.0 8.0 0.00 0.00 0.00 30 1008.9
20260504044547 54 0 1.0 3.0 0.00 0.01 0.01 80 1015.5
20260504044043 70 235 5.0 9.0 0.00 0.00 0.00 30 1008.9
20260504043543 70 212 4.0 9.0 0.00 0.00 0.00 30 1008.8
20260504043053 70 219 5.0 10.0 0.00 0.00 0.00 30 1008.7
20260504043051 54 223 4.0 7.0 0.00 0.01 0.01 79 1015.3
20260504042542 71 215 6.0 11.0 0.00 0.00 0.00 29 1008.8
20260504042042 71 194 6.0 12.0 0.00 0.00 0.00 29 1008.7
20260504041547 71 188 8.0 12.0 0.00 0.00 0.00 29 1008.7
20260504041046 71 214 6.0 13.0 0.00 0.00 0.00 29 1008.7
20260504040544 71 238 9.0 13.0 0.00 0.00 0.00 29 1008.7
20260504040156 72 213 8.0 18.0 0.00 0.00 0.00 29 1008.9
20260504040058 72 213 8.0 18.0 0.00 0.00 0.00 29 1008.9
20260504040050 54 205 2.0 9.0 0.00 0.01 0.01 80 1015.2
20260504035545 72 231 8.0 18.0 0.00 0.00 0.00 28 1008.9
20260504035047 72 217 9.0 14.0 0.00 0.00 0.00 28 1008.7
20260504034549 54 173 3.0 14.0 0.00 0.01 0.01 80 1015.4
20260504034050 72 205 6.0 16.0 0.00 0.00 0.00 25 1008.5
20260504033543 73 215 10.0 16.0 0.00 0.00 0.00 24 1008.4
20260504033054 73 217 9.0 16.0 0.00 0.00 0.00 24 1008.3
20260504033047 54 192 8.0 13.0 0.00 0.01 0.01 80 1015.0
20260504032546 73 160 8.0 14.0 0.00 0.00 0.00 23 1008.2
20260504032046 73 197 8.0 14.0 0.00 0.00 0.00 22 1008.3
20260504031601 73 214 8.0 14.0 0.00 0.00 0.00 21 1008.2
20260504031544 54 252 10.0 17.0 0.00 0.01 0.01 79 1014.6
20260504031045 74 181 9.0 16.0 0.00 0.00 0.00 21 1008.2
20260504030551 74 221 10.0 16.0 0.00 0.00 0.00 21 1008.2
20260504030050 74 191 9.0 16.0 0.00 0.00 0.00 21 1008.0
20260504030047 55 176 7.0 16.0 0.00 0.01 0.01 78 1014.5
20260504025542 74 178 9.0 14.0 0.00 0.00 0.00 20 1008.0
20260504025046 74 206 10.0 14.0 0.00 0.00 0.00 20 1008.1
20260504024602 55 236 6.0 14.0 0.00 0.01 0.01 76 1014.4
20260504024558 74 183 9.0 14.0 0.00 0.00 0.00 19 1008.1
20260504024054 74 208 9.0 14.0 0.00 0.00 0.00 19 1008.0
20260504023549 74 184 8.0 19.0 0.00 0.00 0.00 19 1008.0
20260504023050 75 186 11.0 19.0 0.00 0.00 0.00 19 1008.0
20260504023040 56 225 8.0 15.0 0.00 0.01 0.01 73 1014.3
20260504022546 75 178 8.0 16.0 0.00 0.00 0.00 19 1007.9
20260504022047 75 174 10.0 16.0 0.00 0.00 0.00 18 1008.0
20260504021555 75 180 9.0 18.0 0.00 0.00 0.00 18 1008.1
20260504021547 56 216 7.0 15.0 0.00 0.01 0.01 71 1014.3
20260504021047 75 197 11.0 20.0 0.00 0.00 0.00 18 1008.2
20260504020542 76 193 11.0 20.0 0.00 0.00 0.00 18 1008.2
20260504020052 76 183 13.0 21.0 0.00 0.00 0.00 18 1008.1
20260504020047 57 197 8.0 16.0 0.00 0.01 0.01 70 1014.0
20260504015551 77 201 15.0 21.0 0.00 0.00 0.00 17 1008.0
20260504015043 77 208 14.0 20.0 0.00 0.00 0.00 17 1008.0
20260504014554 78 186 12.0 20.0 0.00 0.00 0.00 17 1008.1
20260504014548 58 224 10.0 17.0 0.00 0.01 0.01 69 1013.7
20260504014046 78 197 12.0 20.0 0.00 0.00 0.00 16 1008.1
20260504013547 78 186 14.0 20.0 0.00 0.00 0.00 16 1008.2
20260504013058 78 205 12.0 21.0 0.00 0.00 0.00 16 1008.0
20260504013045 58 259 11.0 18.0 0.00 0.01 0.01 70 1013.6
20260504012544 79 205 12.0 21.0 0.00 0.00 0.00 16 1008.0
20260504012045 79 188 13.0 21.0 0.00 0.00 0.00 16 1008.1
20260504011552 79 195 11.0 19.0 0.00 0.00 0.00 16 1008.1
20260504011549 59 220 9.0 17.0 0.00 0.01 0.01 69 1013.5
20260504011047 79 155 13.0 20.0 0.00 0.00 0.00 16 1008.2
20260504010544 79 184 13.0 21.0 0.00 0.00 0.00 15 1008.0
20260504010057 80 186 12.0 21.0 0.00 0.00 0.00 15 1008.0
20260504010055 59 244 11.0 20.0 0.00 0.01 0.01 68 1013.3
20260504005548 80 203 12.0 22.0 0.00 0.00 0.00 15 1008.0
20260504005043 80 178 16.0 22.0 0.00 0.00 0.00 15 1008.1
20260504004603 80 201 12.0 21.0 0.00 0.00 0.00 15 1008.1
20260504004553 61 234 10.0 19.0 0.00 0.01 0.01 67 1013.0
20260504004050 81 176 11.0 23.0 0.00 0.00 0.00 15 1008.2
20260504003547 80 180 12.0 23.0 0.00 0.00 0.00 15 1008.2
20260504003054 81 197 13.0 23.0 0.00 0.00 0.00 15 1008.2
20260504002554 81 159 13.0 21.0 0.00 0.00 0.00 15 1008.2
20260504002045 81 186 14.0 22.0 0.00 0.00 0.00 14 1008.2
20260504001557 81 190 14.0 23.0 0.00 0.00 0.00 15 1008.2
20260504001546 64 196 9.0 15.0 0.00 0.01 0.01 63 1012.4
20260504001043 81 144 15.0 23.0 0.00 0.00 0.00 15 1008.2
20260504000548 81 199 15.0 24.0 0.00 0.00 0.00 14 1008.2
20260504000112 64 256 7.0 14.0 0.00 0.01 0.01 64 1012.5
20260503235550 82 204 15.0 28.0 0.00 0.00 0.00 15 1008.1
20260503235107 82 173 14.0 28.0 0.00 0.00 0.00 15 1008.2
20260503234554 82 226 15.0 28.0 0.00 0.00 0.00 15 1008.3
20260503234051 82 196 11.0 27.0 0.00 0.00 0.00 15 1008.3
20260503233555 82 167 15.0 27.0 0.00 0.00 0.00 15 1008.2
20260503233055 82 151 13.0 26.0 0.00 0.00 0.00 15 1008.1
20260503233049 65 0 7.0 14.0 0.00 0.01 0.01 65 1012.7
20260503232550 82 160 13.0 26.0 0.00 0.00 0.00 14 1008.0
20260503232056 82 150 12.0 23.0 0.00 0.00 0.00 15 1008.1
20260503231555 83 190 14.0 23.0 0.00 0.00 0.00 14 1008.2
20260503231548 64 202 9.0 16.0 0.00 0.01 0.01 67 1012.9
20260503231055 83 192 10.0 23.0 0.00 0.00 0.00 14 1008.2
20260503230551 83 156 10.0 21.0 0.00 0.00 0.00 14 1008.1
20260503230056 83 136 10.0 21.0 0.00 0.00 0.00 14 1008.2
20260503230049 64 153 7.0 13.0 0.00 0.01 0.01 68 1013.1
20260503225554 82 179 14.0 21.0 0.00 0.00 0.00 13 1008.3
20260503225103 82 179 12.0 22.0 0.00 0.00 0.00 13 1008.5
20260503224551 65 211 6.0 13.0 0.00 0.01 0.01 65 1013.3
20260503224549 83 183 14.0 23.0 0.00 0.00 0.00 14 1008.6
20260503224051 83 184 15.0 23.0 0.00 0.00 0.00 14 1008.5
20260503223551 83 127 12.0 27.0 0.00 0.00 0.00 14 1008.6
20260503223058 83 153 15.0 27.0 0.00 0.00 0.00 14 1008.7
20260503223053 64 286 6.0 13.0 0.00 0.01 0.01 67 1013.4
20260503222550 82 204 14.0 23.0 0.00 0.00 0.00 14 1008.6
20260503222053 82 193 12.0 23.0 0.00 0.00 0.00 15 1008.7
20260503221556 83 184 12.0 24.0 0.00 0.00 0.00 15 1008.8
20260503221554 62 224 5.0 12.0 0.00 0.01 0.01 71 1013.5
20260503221056 82 184 15.0 25.0 0.00 0.00 0.00 15 1008.9
20260503220616 82 143 13.0 25.0 0.00 0.00 0.00 15 1008.9
20260503220051 64 255 4.0 11.0 0.00 0.01 0.01 68 1013.7
20260503215551 82 144 11.0 24.0 0.00 0.00 0.00 15 1009.1
20260503215121 82 152 14.0 24.0 0.00 0.00 0.00 15 1009.2
20260503214551 83 202 16.0 24.0 0.00 0.00 0.00 14 1009.2
20260503214546 62 284 9.0 13.0 0.00 0.01 0.01 72 1013.9
20260503214050 83 139 7.0 17.0 0.00 0.00 0.00 14 1009.2
20260503213550 82 110 12.0 20.0 0.00 0.00 0.00 15 1009.3
20260503213057 83 78 12.0 20.0 0.00 0.00 0.00 14 1009.4
20260503213046 60 281 4.0 9.0 0.00 0.01 0.01 78 1014.0
20260503212603 83 120 12.0 23.0 0.00 0.00 0.00 13 1009.5
20260503212051 83 147 9.0 23.0 0.00 0.00 0.00 14 1009.6
20260503211604 82 150 15.0 23.0 0.00 0.00 0.00 14 1009.7
20260503211544 59 244 5.0 11.0 0.00 0.01 0.01 79 1014.2
20260503211053 83 165 15.0 23.0 0.00 0.00 0.00 14 1009.6
20260503210551 84 137 14.0 23.0 0.00 0.00 0.00 14 1009.7
20260503210054 83 113 12.0 18.0 0.00 0.00 0.00 14 1009.7
20260503210050 58 206 5.0 12.0 0.00 0.01 0.01 82 1014.1
20260503205546 83 114 12.0 19.0 0.00 0.00 0.00 15 1009.7
20260503205046 83 127 11.0 19.0 0.00 0.00 0.00 15 1009.8
20260503204554 83 158 9.0 26.0 0.00 0.00 0.00 15 1009.9
20260503204545 58 234 6.0 11.0 0.00 0.01 0.01 84 1014.2
20260503204058 83 152 11.0 26.0 0.00 0.00 0.00 15 1010.0
20260503203542 83 143 14.0 24.0 0.00 0.00 0.00 14 1010.0
20260503203105 58 243 3.0 9.0 0.00 0.01 0.01 86 1014.4
20260503203052 83 135 13.0 23.0 0.00 0.00 0.00 15 1010.0
20260503202545 83 105 9.0 20.0 0.00 0.00 0.00 16 1010.0
20260503202045 83 127 14.0 20.0 0.00 0.00 0.00 16 1010.1
20260503201548 82 155 10.0 24.0 0.00 0.00 0.00 15 1010.1
20260503201546 57 288 3.0 8.0 0.00 0.01 0.01 88 1014.3
20260503201047 83 158 9.0 24.0 0.00 0.00 0.00 15 1010.4
20260503200548 83 153 14.0 24.0 0.00 0.00 0.00 16 1010.5
20260503200054 83 138 8.0 21.0 0.00 0.00 0.00 16 1010.6
20260503200050 57 288 4.0 10.0 0.00 0.01 0.01 91 1014.4
20260503195650 82 113 11.0 35.0 0.00 0.00 0.00 17 1010.6
20260503195048 82 172 14.0 35.0 0.00 0.00 0.00 16 1010.6
20260503194554 56 248 5.0 9.0 0.00 0.01 0.01 92 1014.6
20260503194047 82 145 12.0 20.0 0.00 0.00 0.00 16 1011.0
20260503193543 82 165 12.0 20.0 0.00 0.00 0.00 17 1011.0
20260503193056 82 120 11.0 22.0 0.00 0.00 0.00 17 1011.1
20260503193051 56 277 3.0 8.0 0.00 0.01 0.01 93 1014.8
20260503192546 82 154 13.0 22.0 0.00 0.00 0.00 16 1011.4
20260503192105 82 160 12.0 21.0 0.00 0.00 0.00 16 1011.3
20260503191558 81 145 12.0 21.0 0.00 0.00 0.00 16 1011.4
20260503191546 56 257 5.0 9.0 0.00 0.01 0.01 94 1014.7
20260503191043 80 142 8.0 20.0 0.00 0.00 0.00 16 1011.4
20260503190549 81 159 11.0 20.0 0.00 0.00 0.00 16 1011.6
20260503190057 81 110 11.0 17.0 0.00 0.00 0.00 18 1011.5
20260503190045 56 262 4.0 9.0 0.00 0.01 0.01 95 1014.9
20260503185547 81 94 9.0 19.0 0.00 0.00 0.00 18 1011.4
20260503185043 82 101 12.0 19.0 0.00 0.00 0.00 16 1011.6
20260503184603 81 139 10.0 23.0 0.00 0.00 0.00 17 1011.7
20260503184544 55 274 3.0 6.0 0.00 0.01 0.01 96 1014.9
20260503184050 81 90 8.0 23.0 0.00 0.00 0.00 17 1011.8
20260503183544 81 166 9.0 15.0 0.00 0.00 0.00 16 1011.9
20260503183055 80 87 9.0 16.0 0.00 0.00 0.00 16 1011.9
20260503183050 55 0 1.0 11.0 0.00 0.01 0.01 96 1014.9
20260503182548 80 160 8.0 20.0 0.00 0.00 0.00 16 1012.0